Weather History for Sturgeon Bay, WI

Change the Weather History Date:

Saturday, May 4, 2013

  Actual Average Record
Temperature  
Mean Temperature 11 °C -  
Max Temperature 20 °C 15 °C 27 °C (1934)
Min Temperature 4 °C 2 °C -6 °C (1907)
Degree Days  
Heating Degree Days 12    
Growing Degree Days 2 (Base 50)    
Moisture  
Dew Point 5 °C    
Average Humidity 68    
Maximum Humidity 93    
Minimum Humidity 45    
Precipitation  
Precipitation 0.00 mm - - ()
Sea Level Pressure  
Sea Level Pressure 1019 hPa    
Wind  
Wind Speed 10 km/h (NNE)    
Max Wind Speed 14 km/h    
Max Gust Speed -    
Visibility 16 kilometers    
Events      
Averages and records for this station are not official NWS values.
T = Trace of Precipitation, MM = Missing Value Source: NWS Daily Summary

Daily Weather History Graph

Daily Weather History Graph

Search for Another Location

Airport:

Trip Planner

Search our weather history database for the weather conditions in past years. The results will help you decide how hot, cold, wet, or windy it might be!

Date:

Astronomy

May. 04, 2013 Rise Set
Actual Time 5:34 AM CDT 7:58 PM CDT
Civil Twilight 5:02 AM CDT 8:31 PM CDT
Nautical Twilight 4:21 AM CDT 9:12 PM CDT
Astronomical Twilight 3:35 AM CDT 9:58 PM CDT
Moon 2:46 AM CDT (5/4) 2:43 PM CDT (5/4)
Length of Visible Light 15h 29m
Length of Day
14h 24m
Waning Crescent, 27% of the Moon is Illuminated
May 4
Waning Crescent
May 9
New
May 17
First Quarter
May 24
Full
May 31
Last Quarter

Hourly Weather History & Observations

Time (CDT) Temp. Windchill Dew Point Humidity Pressure Visibility Wind Dir Wind Speed Gust Speed Precip Events Conditions
12:15 AM 4.0 °C 0.6 °C 2.0 °C 87% 1019.2 hPa 16.1 km North 14.8 km/h / 4.1 m/s - N/A   Mostly Cloudy
12:35 AM 4.0 °C 0.9 °C 2.0 °C 87% 1018.8 hPa 16.1 km North 13.0 km/h / 3.6 m/s - N/A   Partly Cloudy
12:55 AM 4.0 °C 0.9 °C 2.0 °C 87% 1018.8 hPa 16.1 km NNE 13.0 km/h / 3.6 m/s - N/A   Clear
1:15 AM 4.0 °C 1.2 °C 2.0 °C 87% 1018.5 hPa 16.1 km NNE 11.1 km/h / 3.1 m/s - N/A   Clear
1:35 AM 4.0 °C 1.7 °C 2.0 °C 87% 1018.5 hPa 16.1 km North 9.3 km/h / 2.6 m/s - N/A   Clear
1:55 AM 4.0 °C 1.7 °C 2.0 °C 87% 1018.5 hPa 16.1 km North 9.3 km/h / 2.6 m/s - N/A   Clear
2:15 AM 4.0 °C 1.7 °C 2.0 °C 87% 1018.2 hPa 16.1 km NNE 9.3 km/h / 2.6 m/s - N/A   Clear
2:35 AM 4.0 °C 1.7 °C 3.0 °C 93% 1018.2 hPa 16.1 km NNE 9.3 km/h / 2.6 m/s - N/A   Mostly Cloudy
2:55 AM 5.0 °C 2.8 °C 3.0 °C 87% 1018.2 hPa 16.1 km North 9.3 km/h / 2.6 m/s - N/A   Overcast
3:15 AM 5.0 °C 2.8 °C 3.0 °C 87% 1018.2 hPa 16.1 km NNE 9.3 km/h / 2.6 m/s - N/A   Partly Cloudy
3:35 AM 5.0 °C 2.8 °C 3.0 °C 87% 1018.2 hPa 16.1 km NNE 9.3 km/h / 2.6 m/s - N/A   Clear
3:55 AM 4.0 °C 2.1 °C 2.0 °C 87% 1018.2 hPa 16.1 km NNE 7.4 km/h / 2.1 m/s - N/A   Clear
4:15 AM 4.0 °C 1.7 °C 2.0 °C 87% 1018.2 hPa 16.1 km NNE 9.3 km/h / 2.6 m/s - N/A   Clear
4:35 AM 4.0 °C 2.1 °C 2.0 °C 87% 1018.2 hPa 16.1 km North 7.4 km/h / 2.1 m/s - N/A   Clear
4:55 AM 4.0 °C 2.1 °C 2.0 °C 87% 1018.2 hPa 16.1 km NNE 7.4 km/h / 2.1 m/s - N/A   Clear
5:15 AM 4.0 °C 2.1 °C 2.0 °C 87% 1018.2 hPa 16.1 km NNE 7.4 km/h / 2.1 m/s - N/A   Clear
5:35 AM 4.0 °C 2.8 °C 2.0 °C 87% 1018.2 hPa 16.1 km ENE 5.6 km/h / 1.5 m/s - N/A   Clear
5:55 AM 5.0 °C 3.3 °C 3.0 °C 87% 1018.5 hPa 16.1 km NE 7.4 km/h / 2.1 m/s - N/A   Clear
6:15 AM 4.0 °C 2.1 °C 3.0 °C 93% 1018.5 hPa 16.1 km NNE 7.4 km/h / 2.1 m/s - N/A   Clear
6:35 AM 5.0 °C 3.9 °C 3.0 °C 87% 1018.5 hPa 16.1 km ENE 5.6 km/h / 1.5 m/s - N/A   Clear
6:55 AM 6.0 °C 5.0 °C 4.0 °C 87% 1018.8 hPa 16.1 km ENE 5.6 km/h / 1.5 m/s - N/A   Clear
7:15 AM 7.0 °C 6.2 °C 4.0 °C 81% 1018.8 hPa 16.1 km NE 5.6 km/h / 1.5 m/s - N/A   Clear
7:35 AM 8.0 °C 7.3 °C 5.0 °C 81% 1019.2 hPa 16.1 km NNE 5.6 km/h / 1.5 m/s - N/A   Clear
7:55 AM 8.0 °C 6.8 °C 5.0 °C 81% 1019.2 hPa 16.1 km NNE 7.4 km/h / 2.1 m/s - N/A   Clear
8:15 AM 9.0 °C - 6.0 °C 82% 1019.2 hPa 16.1 km NE 7.4 km/h / 2.1 m/s - N/A   Clear
8:35 AM 10.0 °C - 6.0 °C 76% 1019.2 hPa 16.1 km NE 7.4 km/h / 2.1 m/s - N/A   Clear
8:55 AM 10.0 °C - 6.0 °C 76% 1019.5 hPa 16.1 km East 7.4 km/h / 2.1 m/s - N/A   Clear
9:15 AM 11.0 °C - 6.0 °C 71% 1019.5 hPa 16.1 km East 7.4 km/h / 2.1 m/s - N/A   Clear
9:35 AM 11.0 °C - 6.0 °C 71% 1019.5 hPa 16.1 km ENE 7.4 km/h / 2.1 m/s - N/A   Clear
9:55 AM 12.0 °C - 6.0 °C 67% 1019.9 hPa 16.1 km ENE 7.4 km/h / 2.1 m/s - N/A   Clear
10:15 AM 12.0 °C - 7.0 °C 72% 1019.5 hPa 16.1 km NNW 7.4 km/h / 2.1 m/s - N/A   Clear
10:35 AM 11.0 °C - 6.0 °C 71% 1019.5 hPa 16.1 km NW 9.3 km/h / 2.6 m/s - N/A   Clear
10:55 AM 11.0 °C - 6.0 °C 71% 1019.9 hPa 16.1 km NNW 13.0 km/h / 3.6 m/s - N/A   Clear
11:15 AM 11.0 °C - 6.0 °C 71% 1019.9 hPa 16.1 km NW 11.1 km/h / 3.1 m/s - N/A   Clear
11:35 AM 12.0 °C - 7.0 °C 72% 1019.9 hPa 16.1 km NNW 11.1 km/h / 3.1 m/s - N/A   Clear
11:55 AM 13.0 °C - 7.0 °C 67% 1019.9 hPa 16.1 km NW 9.3 km/h / 2.6 m/s - N/A   Clear
12:15 PM 15.0 °C - 8.0 °C 63% 1019.5 hPa 16.1 km North 11.1 km/h / 3.1 m/s - N/A   Clear
12:35 PM 17.0 °C - 8.0 °C 55% 1019.5 hPa 16.1 km East 13.0 km/h / 3.6 m/s - N/A   Clear
12:55 PM 17.0 °C - 8.0 °C 55% 1019.5 hPa 16.1 km East 11.1 km/h / 3.1 m/s - N/A   Clear
1:15 PM 18.0 °C - 8.0 °C 52% 1019.5 hPa 16.1 km East 11.1 km/h / 3.1 m/s - N/A   Clear
1:35 PM 18.0 °C - 8.0 °C 52% 1019.2 hPa 16.1 km East 9.3 km/h / 2.6 m/s - N/A   Clear
1:55 PM 18.0 °C - 7.0 °C 49% 1019.2 hPa 16.1 km SE 7.4 km/h / 2.1 m/s - N/A   Clear
2:15 PM 18.0 °C - 8.0 °C 52% 1019.2 hPa 16.1 km ESE 7.4 km/h / 2.1 m/s - N/A   Clear
2:35 PM 18.0 °C - 8.0 °C 52% 1018.8 hPa 16.1 km ESE 7.4 km/h / 2.1 m/s - N/A   Clear
2:55 PM 18.0 °C - 8.0 °C 52% 1018.8 hPa 16.1 km NNE 9.3 km/h / 2.6 m/s - N/A   Clear
3:15 PM 19.0 °C - 8.0 °C 49% 1018.5 hPa 16.1 km ENE 11.1 km/h / 3.1 m/s - N/A   Clear
3:35 PM 19.0 °C - 8.0 °C 49% 1018.2 hPa 16.1 km NNW 11.1 km/h / 3.1 m/s - N/A   Clear
3:55 PM 19.0 °C - 9.0 °C 52% 1018.2 hPa 16.1 km North 11.1 km/h / 3.1 m/s - N/A   Clear
4:15 PM 19.0 °C - 8.0 °C 49% 1017.8 hPa 16.1 km North 14.8 km/h / 4.1 m/s - N/A   Clear
4:35 PM 18.0 °C - 7.0 °C 49% 1017.8 hPa 16.1 km North 13.0 km/h / 3.6 m/s - N/A   Clear
4:55 PM 19.0 °C - 7.0 °C 46% 1017.8 hPa 16.1 km North 9.3 km/h / 2.6 m/s - N/A   Clear
5:15 PM 18.0 °C - 6.0 °C 45% 1017.8 hPa 16.1 km North 9.3 km/h / 2.6 m/s - N/A   Clear
5:35 PM 18.0 °C - 7.0 °C 49% 1017.8 hPa 16.1 km NNW 7.4 km/h / 2.1 m/s - N/A   Clear
5:55 PM 18.0 °C - 7.0 °C 49% 1017.8 hPa 16.1 km NNW 9.3 km/h / 2.6 m/s - N/A   Clear
6:15 PM 18.0 °C - 7.0 °C 49% 1017.8 hPa 16.1 km North 5.6 km/h / 1.5 m/s - N/A   Clear
6:35 PM 18.0 °C - 7.0 °C 49% 1018.2 hPa 16.1 km East 11.1 km/h / 3.1 m/s - N/A   Clear
6:55 PM 18.0 °C - 6.0 °C 45% 1018.2 hPa 16.1 km East 9.3 km/h / 2.6 m/s - N/A   Clear
7:15 PM 18.0 °C - 6.0 °C 45% 1018.2 hPa 16.1 km East 9.3 km/h / 2.6 m/s - N/A   Clear
7:35 PM 17.0 °C - 5.0 °C 45% 1018.2 hPa 16.1 km Calm Calm - N/A   Clear
7:55 PM 17.0 °C - 6.0 °C 48% 1018.5 hPa 16.1 km ENE 5.6 km/h / 1.5 m/s - N/A   Clear
8:15 PM 16.0 °C - 6.0 °C 52% 1018.5 hPa 16.1 km North 7.4 km/h / 2.1 m/s - N/A   Clear
8:35 PM 14.0 °C - 6.0 °C 59% 1018.5 hPa 16.1 km NNW 11.1 km/h / 3.1 m/s - N/A   Clear
8:55 PM 12.0 °C - 4.0 °C 58% 1018.8 hPa 16.1 km NNW 11.1 km/h / 3.1 m/s - N/A   Clear
9:15 PM 11.0 °C - 5.0 °C 67% 1018.8 hPa 16.1 km North 7.4 km/h / 2.1 m/s - N/A   Clear
9:35 PM 11.0 °C - 5.0 °C 67% 1018.8 hPa 16.1 km NNE 7.4 km/h / 2.1 m/s - N/A   Clear
9:55 PM 12.0 °C - 5.0 °C 62% 1019.2 hPa 16.1 km North 5.6 km/h / 1.5 m/s - N/A   Clear
10:15 PM 12.0 °C - 6.0 °C 67% 1019.2 hPa 16.1 km NNE 11.1 km/h / 3.1 m/s - N/A   Clear
10:35 PM 11.0 °C - 5.0 °C 67% 1019.2 hPa 16.1 km NNE 11.1 km/h / 3.1 m/s - N/A   Clear
10:55 PM 11.0 °C - 4.0 °C 62% 1019.2 hPa 16.1 km NNE 9.3 km/h / 2.6 m/s - N/A   Clear
11:15 PM 8.0 °C 6.8 °C 3.0 °C 71% 1019.2 hPa 16.1 km NNW 7.4 km/h / 2.1 m/s - N/A   Clear
11:35 PM 8.0 °C 6.4 °C 3.0 °C 71% 1019.5 hPa 16.1 km NNW 9.3 km/h / 2.6 m/s - N/A   Clear
11:55 PM 7.0 °C 5.7 °C 3.0 °C 76% 1019.5 hPa 16.1 km North 7.4 km/h / 2.1 m/s - N/A   Clear